Terug naar catalogus

QIANFAN-89

ActiefCommunicatiePO
NORAD 63175·PAYLOAD·🇨🇳 China

Gelanceerd Mar 11, 2025 vanaf Wenchang Space Launch Site

Loading…

Volgende Passages (komende 24 uur)

TLE

VersSource: Space-Track

Epoch: Sep 14, 2026, 12:56 UTC

1 63175U 25046S   26257.53917073  .00000080  00000-0  10536-3 0  9992
2 63175  88.9653 291.4083 0018138  53.8537 306.4290 13.51024756 84642

Volg QIANFAN-89 in realtime met AllMySat

Download on the App Store